Regional Weather Roundup
Issued by NWS

Home | Current Version | Previous Version | Text Only | Print | Product List | Glossary Off
Versions: 1 2 3 4 5 6 7 8 9 10 11 12 13 14 15 16 17 18 19 20 21 22 23 24 25 26 27 28

000
ASUS45 KBOI 141310
RWRID

IDAHO REGIONAL WEATHER ROUNDUP
NATIONAL WEATHER SERVICE BOISE ID
600 AM MST THU DEC 14 2017

NOTE: "FAIR" INDICATES FEW OR NO CLOUDS BELOW 12000 FEET
WITH NO SIGNIFICANT WEATHER AND/OR OBSTRUCTIONS TO VISIBILITY

IDZ012-014-141400-
SOUTHWEST IDAHO


CITY           SKY/WX    TMP DP  RH WIND       PRES   REMARKS
BOISE          CLOUDY    25  22  88 SE8       30.53S WCI  16
CALDWELL       NOT AVBL
MOUNTAIN HOME  CLOUDY    24  24 100 E5        30.52S FOG     WCI  19
$$

IDZ016-017-141400-
SOUTHCENTRAL IDAHO


CITY           SKY/WX    TMP DP  RH WIND       PRES   REMARKS
BURLEY         CLOUDY    23  20  88 E3        30.47R FOG
JEROME         HAZE      26  21  81 E7        30.47S VSB 1   WCI  18
TWIN FALLS     FOG       24  23  96 E6        30.46F VSB 1   WCI  17
$$

IDZ019>023-141400-
SOUTHEAST IDAHO


CITY           SKY/WX    TMP DP  RH WIND       PRES   REMARKS
IDAHO FALLS    FOG       22  21  96 SW7       30.45S VSB 1/4 WCI  13
POCATELLO      FOG       21  18  88 S5        30.48R VSB 1/2 WCI  15
REXBURG        FOG       19  19 100 CALM      30.41F VSB 1/4
$$

IDZ006-010-011-018-031-032-141400-
CENTRAL IDAHO MOUNTAINS


CITY           SKY/WX    TMP DP  RH WIND       PRES   REMARKS
MCCALL         MOCLDY    10   6  84 CALM      30.38S
HAILEY         CLEAR     21  19  93 N6        30.43R WCI  14
STANLEY          N/A     11   6  81 E3        30.45R
SALMON         CLOUDY    22  20  92 CALM      30.51S
CHALLIS        CLOUDY    20  17  88 CALM      30.47R
$$

IDZ002-004-006-007-026-141400-
NORTHERN IDAHO


CITY           SKY/WX    TMP DP  RH WIND       PRES   REMARKS
LEWISTON       CLOUDY    32  28  85 CALM      30.56S
LOWELL           N/A     32  30  92 CALM      30.55F
COEUR D`ALENE  NOT AVBL
MULLAN PASS    PTCLDY    23  20  88 S5        30.36R WCI  17
$$




USA.gov is the U.S. government's official web portal to all federal, state and local government web resources and services.